RYR7WG EGPH-EGSS

Flight info

Callsign RYR7WG
Flight time N/A
Altitude 31000
Route GOSAM P600 FENIK L612 ELBUS UL612 LISTO
Aircraft B738/M-SDE2E3FGHIRWXY/LB1

Departure

Time 2026-04-21 15:36
Airport Edinburgh Airport (EGPH)

Arrival

Time N/A
Airport London Stansted Airport (EGSS)
Time Latitude Longitude Altitude Speed Heading
2026-04-21 15:10 55.94788 -3.35609 110 ft 0 kts 207°
2026-04-21 15:21 55.94791 -3.35606 110 ft 2 kts 207°
2026-04-21 15:21 55.94804 -3.35594 110 ft 2 kts 207°
2026-04-21 15:21 55.94814 -3.35583 110 ft 2 kts 224°
2026-04-21 15:21 55.94823 -3.35563 110 ft 2 kts 245°
2026-04-21 15:22 55.94827 -3.35537 110 ft 2 kts 268°
2026-04-21 15:22 55.94825 -3.35510 110 ft 2 kts 291°
2026-04-21 15:22 55.94822 -3.35499 110 ft 1 kts 303°
2026-04-21 15:22 55.94820 -3.35493 110 ft 0 kts 300°
2026-04-21 15:23 55.94820 -3.35492 110 ft 0 kts 300°
2026-04-21 15:25 55.94822 -3.35499 110 ft 3 kts 300°
2026-04-21 15:25 55.94849 -3.35588 110 ft 11 kts 298°
2026-04-21 15:25 55.94889 -3.35718 109 ft 11 kts 300°
2026-04-21 15:26 55.94917 -3.35808 109 ft 2 kts 300°
2026-04-21 15:26 55.94952 -3.35864 109 ft 8 kts 341°
2026-04-21 15:26 55.94998 -3.35847 108 ft 8 kts 27°
2026-04-21 15:26 55.95073 -3.35793 108 ft 13 kts 356°
2026-04-21 15:27 55.95134 -3.35905 107 ft 11 kts 313°
2026-04-21 15:27 55.95193 -3.35977 107 ft 9 kts 324°
2026-04-21 15:27 55.95195 -3.36099 107 ft 15 kts 240°
2026-04-21 15:27 55.95137 -3.36271 107 ft 17 kts 239°
2026-04-21 15:28 55.95073 -3.36461 106 ft 19 kts 239°
2026-04-21 15:28 55.94998 -3.36681 105 ft 21 kts 239°
2026-04-21 15:28 55.94918 -3.36906 104 ft 19 kts 234°
2026-04-21 15:28 55.94850 -3.37122 103 ft 23 kts 240°
2026-04-21 15:29 55.94763 -3.37380 103 ft 29 kts 239°
2026-04-21 15:29 55.94654 -3.37699 104 ft 27 kts 239°
2026-04-21 15:29 55.94567 -3.37957 106 ft 22 kts 239°
2026-04-21 15:29 55.94494 -3.38173 108 ft 16 kts 239°
2026-04-21 15:30 55.94428 -3.38365 111 ft 20 kts 239°
2026-04-21 15:30 55.94351 -3.38593 114 ft 20 kts 239°
2026-04-21 15:30 55.94305 -3.38726 115 ft 2 kts 239°
2026-04-21 15:30 55.94291 -3.38771 116 ft 2 kts 240°
2026-04-21 15:31 55.94290 -3.38774 116 ft 0 kts 241°
2026-04-21 15:33 55.94284 -3.38792 116 ft 7 kts 245°
2026-04-21 15:33 55.94282 -3.38843 116 ft 3 kts 289°
2026-04-21 15:34 55.94310 -3.38887 116 ft 0 kts 332°
2026-04-21 15:34 55.94326 -3.38902 116 ft 8 kts 332°
2026-04-21 15:34 55.94410 -3.38959 116 ft 12 kts 12°
2026-04-21 15:34 55.94453 -3.38862 115 ft 0 kts 63°
2026-04-21 15:35 55.94464 -3.38828 115 ft 15 kts 62°
2026-04-21 15:35 55.94699 -3.38120 107 ft 112 kts 59°
2026-04-21 15:35 55.95210 -3.36613 392 ft 161 kts 60°
2026-04-21 15:36 55.95819 -3.34745 1149 ft 190 kts 60°
2026-04-21 15:36 55.96581 -3.32700 2164 ft 208 kts 47°
2026-04-21 15:36 55.97705 -3.31029 3086 ft 220 kts 33°
2026-04-21 15:36 55.99033 -3.29426 3703 ft 245 kts 33°
2026-04-21 15:37 56.00525 -3.27827 4686 ft 251 kts 19°
2026-04-21 15:37 56.02193 -3.27562 5789 ft 250 kts 347°
2026-04-21 15:37 56.03668 -3.29093 6860 ft 253 kts 312°
2026-04-21 15:37 56.04377 -3.31904 7929 ft 259 kts 278°
2026-04-21 15:38 56.04050 -3.35043 9037 ft 267 kts 246°
2026-04-21 15:38 56.03059 -3.37819 10222 ft 267 kts 242°
2026-04-21 15:38 56.02301 -3.40865 11051 ft 277 kts 253°
2026-04-21 15:38 56.01738 -3.44278 11668 ft 296 kts 255°
2026-04-21 15:39 56.01207 -3.47848 12711 ft 300 kts 256°
2026-04-21 15:39 56.00690 -3.51457 13764 ft 303 kts 256°
2026-04-21 15:39 56.00250 -3.54519 14683 ft 305 kts 256°
2026-04-21 15:39 55.99645 -3.58736 15937 ft 308 kts 256°
2026-04-21 15:40 55.99124 -3.62369 16975 ft 310 kts 256°
2026-04-21 15:40 55.98599 -3.66030 17979 ft 312 kts 255°
2026-04-21 15:40 55.98076 -3.69673 18939 ft 314 kts 255°
2026-04-21 15:40 55.97551 -3.73324 19868 ft 316 kts 255°
2026-04-21 15:41 55.97019 -3.77016 20753 ft 318 kts 255°
2026-04-21 15:41 55.96528 -3.80412 21545 ft 320 kts 255°
2026-04-21 15:41 55.95969 -3.84277 22381 ft 323 kts 254°
2026-04-21 15:41 55.95412 -3.88108 23209 ft 324 kts 254°
2026-04-21 15:42 55.94845 -3.92006 23959 ft 327 kts 254°
2026-04-21 15:42 55.94271 -3.95940 24723 ft 329 kts 254°
2026-04-21 15:42 55.93534 -3.99826 25393 ft 333 kts 244°
2026-04-21 15:42 55.92191 -4.03146 26126 ft 336 kts 232°
2026-04-21 15:43 55.90602 -4.06224 26813 ft 339 kts 229°
2026-04-21 15:43 55.88721 -4.08910 27397 ft 349 kts 218°
2026-04-21 15:43 55.86665 -4.11162 28053 ft 351 kts 217°
2026-04-21 15:43 55.84826 -4.13220 28559 ft 353 kts 219°
2026-04-21 15:44 55.82511 -4.15898 29199 ft 355 kts 219°
2026-04-21 15:44 55.80554 -4.18149 29684 ft 358 kts 219°
2026-04-21 15:44 55.78365 -4.20658 30283 ft 358 kts 220°
2026-04-21 15:44 55.76263 -4.23130 30765 ft 362 kts 218°
2026-04-21 15:45 55.73990 -4.25090 31208 ft 376 kts 206°
2026-04-21 15:45 55.71353 -4.25800 31496 ft 399 kts 189°
2026-04-21 15:45 55.68546 -4.25146 31508 ft 415 kts 178°
2026-04-21 15:45 55.65756 -4.23620 31501 ft 428 kts 168°
2026-04-21 15:46 55.60462 -4.18427 31500 ft 436 kts 161°
2026-04-21 15:46 55.55614 -4.13623 31501 ft 436 kts 162°
2026-04-21 15:47 55.50312 -4.08469 31505 ft 437 kts 162°
2026-04-21 15:47 55.44996 -4.03262 31501 ft 437 kts 162°
2026-04-21 15:48 55.39673 -3.98103 31505 ft 438 kts 162°
2026-04-21 15:48 55.34359 -3.92987 31509 ft 435 kts 162°
2026-04-21 15:49 55.29090 -3.87887 31506 ft 438 kts 162°
2026-04-21 15:49 55.23754 -3.82750 31495 ft 435 kts 162°
2026-04-21 15:50 55.18589 -3.77830 31492 ft 437 kts 162°
2026-04-21 15:50 55.13282 -3.72769 31503 ft 436 kts 162°
2026-04-21 15:51 55.07978 -3.67702 31515 ft 437 kts 162°
2026-04-21 15:51 55.02638 -3.62672 31526 ft 435 kts 162°
2026-04-21 15:52 54.97321 -3.57644 31532 ft 434 kts 163°
2026-04-21 15:52 54.92935 -3.53493 31533 ft 432 kts 164°
2026-04-21 15:53 54.86853 -3.47770 31530 ft 430 kts 165°
2026-04-21 15:53 54.82191 -3.43400 31491 ft 429 kts 165°
2026-04-21 15:54 54.76625 -3.38200 31444 ft 430 kts 165°
2026-04-21 15:54 54.71520 -3.33467 31401 ft 427 kts 167°
2026-04-21 15:55 54.66192 -3.29434 31398 ft 417 kts 172°
2026-04-21 15:55 54.61787 -3.26202 31398 ft 420 kts 171°
2026-04-21 15:56 54.55544 -3.21546 31398 ft 420 kts 171°
2026-04-21 15:56 54.50199 -3.17571 31398 ft 419 kts 171°
2026-04-21 15:57 54.44848 -3.13598 31398 ft 419 kts 171°
2026-04-21 15:57 54.39510 -3.09643 31398 ft 419 kts 171°
2026-04-21 15:58 54.34142 -3.05675 31398 ft 419 kts 171°
2026-04-21 15:58 54.28957 -3.01852 31371 ft 419 kts 171°
2026-04-21 15:59 54.23604 -2.97914 31371 ft 419 kts 171°
2026-04-21 15:59 54.18240 -2.93981 31371 ft 420 kts 171°
2026-04-21 16:00 54.12894 -2.90073 31371 ft 421 kts 171°
2026-04-21 16:00 54.07532 -2.86163 31371 ft 421 kts 171°
2026-04-21 16:01 54.02150 -2.82248 31371 ft 421 kts 171°
2026-04-21 16:01 53.96915 -2.78451 31371 ft 421 kts 171°
2026-04-21 16:02 53.91526 -2.74551 31371 ft 421 kts 171°
2026-04-21 16:02 53.86257 -2.70751 31371 ft 421 kts 171°
2026-04-21 16:03 53.81011 -2.66979 31371 ft 421 kts 171°
2026-04-21 16:03 53.75960 -2.63357 31371 ft 421 kts 171°
2026-04-21 16:04 53.70655 -2.59563 31371 ft 421 kts 171°
2026-04-21 16:04 53.65378 -2.55798 31371 ft 421 kts 171°
2026-04-21 16:05 53.60077 -2.52027 31371 ft 421 kts 171°
2026-04-21 16:05 53.54882 -2.48341 31371 ft 421 kts 171°
2026-04-21 16:06 53.49540 -2.44561 31371 ft 421 kts 171°
2026-04-21 16:06 53.44436 -2.40959 31371 ft 421 kts 171°
2026-04-21 16:07 53.38995 -2.37129 31371 ft 421 kts 171°
2026-04-21 16:07 53.33876 -2.33535 31371 ft 420 kts 171°
2026-04-21 16:08 53.26421 -2.28320 31371 ft 420 kts 171°
2026-04-21 16:09 53.21460 -2.24861 31371 ft 420 kts 171°
2026-04-21 16:09 53.16195 -2.21088 31371 ft 426 kts 168°
2026-04-21 16:10 53.11659 -2.16496 31372 ft 445 kts 158°
2026-04-21 16:10 53.06676 -2.10405 31274 ft 448 kts 158°
2026-04-21 16:11 53.01894 -2.04679 31163 ft 451 kts 158°
2026-04-21 16:11 52.96824 -1.98568 31046 ft 454 kts 157°
2026-04-21 16:12 52.92601 -1.93477 31045 ft 454 kts 157°
2026-04-21 16:12 52.87823 -1.87727 31175 ft 454 kts 157°
2026-04-21 16:13 52.83494 -1.82532 31279 ft 455 kts 157°
2026-04-21 16:13 52.78360 -1.76379 31346 ft 457 kts 157°
2026-04-21 16:14 52.73150 -1.70647 31010 ft 464 kts 163°
2026-04-21 16:14 52.70878 -1.68655 30810 ft 460 kts 166°
2026-04-21 16:14 52.68670 -1.66804 30615 ft 460 kts 166°
2026-04-21 16:14 52.65913 -1.64457 30371 ft 460 kts 165°
2026-04-21 16:15 52.63091 -1.62014 29793 ft 456 kts 165°
2026-04-21 16:15 52.60311 -1.59608 28899 ft 454 kts 164°
2026-04-21 16:15 52.57527 -1.57230 27972 ft 459 kts 164°
2026-04-21 16:15 52.54870 -1.54969 27043 ft 464 kts 163°
2026-04-21 16:16 52.52661 -1.53081 26329 ft 459 kts 163°
2026-04-21 16:16 52.50880 -1.51546 25911 ft 450 kts 163°
2026-04-21 16:16 52.45222 -1.46724 24470 ft 446 kts 162°
2026-04-21 16:17 52.42522 -1.44417 23761 ft 434 kts 162°
2026-04-21 16:17 52.39867 -1.42159 23076 ft 436 kts 162°
2026-04-21 16:17 52.37186 -1.39895 22360 ft 431 kts 162°
2026-04-21 16:17 52.34882 -1.37935 21742 ft 422 kts 162°
2026-04-21 16:18 52.32610 -1.36016 21138 ft 425 kts 161°
2026-04-21 16:18 52.30426 -1.34178 20561 ft 419 kts 162°
2026-04-21 16:18 52.28768 -1.32747 20373 ft 416 kts 160°
2026-04-21 16:18 52.27058 -1.31164 20331 ft 422 kts 159°
2026-04-21 16:19 52.25757 -1.29923 20305 ft 425 kts 159°